www.pogodaiklimat.ru

Погода и климат >> Архив погоды >> Украина >> Киев


АРХИВ ПОГОДЫ в Киеве

Время (UTC), дата Ветер
(напр.,м/с)
 
Видим.   Явления Облачность Т
(С)
Тd
(С)
f
(%)
Тe
(С)
Тes
(С)
Комфортность P
(гПа)
Po
(гПа)
Тmin
(С)
Tmax
(С)
R
(мм)
R24
(мм)
S
(см)
21 12.08 штиль 0 20 км ясно +24.3 +15.8 59 +27 +27 жарко 1011.5 992.4
00 13.08 штиль 0 20 км ясно +22.0 +14.4 62 +25 +25 комфорт 1011.2 991.9
03 13.08 штиль 0 20 км ясно +20.1 +14.8 72 +22 +22 комфорт 1011.5 992.1
06 13.08 штиль 0 20 км ясно +25.5 +16.1 56 +29 +36 душно 1011.2 992.2 +19.9
09 13.08 Ю 1 20 км ясно +32.0 +11.9 29 +32 +48 жарко 1010.6 992.0
12 13.08 Ю 3 20 км 1/1 1000 м
[Cu hum]
+33.7 +10.9 25 +33 +42 жарко 1010.2 991.7
15 13.08 Ю 2 20 км ясно +32.7 +10.0 25 +32 +35 жарко 1010.1 991.5
18 13.08 СВ 1 20 км 1/0
[Ac cuf]
+27.3 +10.5 35 +28 +28 жарко 1011.1 992.2 +34.3
21 13.08 штиль 0 20 км 3/0
[Ac trans]
+25.0 +14.1 51 +27 +27 жарко 1011.7 992.6
00 14.08 С 3 20 км 4/0
[Ac trans]
+23.3 +13.2 53 +26 +26 жарко 1012.2 993.0
03 14.08 С 3 10 км 8/0
[Ac lent Ci fib]
+22.0 +19.3 85 +27 +27 душно 1012.6 993.4
06 14.08 С 4 20 км 9/3 600 м
[Cu hum Ac trans Cs]
+23.2 +19.6 80 +30 +31 очень
душно
1013.7 994.5 +21.6
09 14.08 СВ 5 20 км 9/0
[Ac As]
+23.0 +18.1 74 +29 +31 очень
душно
1014.6 995.4
12 14.08 С 6 20 км 9/0
[Ac trans]
+24.4 +17.5 65 +28 +30 душно 1015.6 996.4
15 14.08 СВ 6 20 км 10/0
[As op]
+24.4 +17.5 65 +28 +29 душно 1016.4 997.2
18 14.08 С 5 20 км 10/0
[Ac As]
+23.4 +16.9 67 +29 +29 душно 1017.5 998.2 +25.5
21 14.08 СВ 4 20 км 8/0
[Ac As]
+22.1 +16.0 68 +26 +26 душно 1018.8 999.4
00 15.08 СВ 4 10 км 10/10 720 м
[Sc]
+20.4 +15.7 74 +23 +23 комфорт 1019.4 999.9
03 15.08 СВ 4 20 км 9/5 600 м
[Sc Ac trans]
+19.1 +15.4 79 +20 +20 тепло 1019.7 1000.1
06 15.08 СВ 4 20 км 8/6 300 м
[Sc Ac lent]
+19.6 +15.7 78 +22 +23 комфорт 1020.5 1000.9 +19.0
09 15.08 СВ 4 20 км 8/0
[Cs]
+23.9 +17.3 67 +28 +35 душно 1020.3 1001.0
12 15.08 СВ 3 20 км 3/0
[Ci fib]
+26.7 +17.7 58 +31 +40 душно 1019.6 1000.5
15 15.08 СВ 3 20 км ясно +27.3 +18.0 57 +32 +34 очень
душно
1019.4 1000.4
18 15.08 СВ 1 20 км 1/0
[Ci sp]
+24.4 +20.7 80 +30 +30 очень
душно
1020.2 1001.0 +28.2
21 15.08 В 2 20 км 4/0
[Ac trans]
+22.6 +18.6 78 +28 +28 душно 1020.8 1001.4
00 16.08 СВ 2 20 км 6/0
[Ci fib]
+20.3 +18.5 89 +24 +24 комфорт 1020.8 1001.3
03 16.08 СВ 2 4000 м дымка 1/1 1000 м
[Cu hum]
+19.0 +17.9 93 +21 +21 комфорт 1020.8 1001.2
06 16.08 В 1 20 км ясно +22.0 +18.3 80 +27 +33 душно 1021.2 1001.8 +18.9
09 16.08 СВ 3 20 км ясно +27.8 +17.3 53 +32 +43 душно 1020.3 1001.3
12 16.08 В 2 20 км 3/3 1000 м
[Cu hum]
+31.3 +16.2 40 +34 +42 душно 1019.4 1000.6
15 16.08 В 3 20 км 1/1 1000 м
[Cu hum]
+30.2 +15.7 42 +33 +35 душно 1018.7 999.8
18 16.08 В 2 20 км 3/0
[Ac trans]
+26.5 +17.3 57 +31 +31 душно 1020.1 1001.0 +31.4
21 16.08 В 2 20 км ясно +24.2 +16.2 61 +28 +28 душно 1020.6 1001.3
00 17.08 В 1 20 км ясно +21.7 +14.6 64 +25 +25 комфорт 1020.5 1001.0
03 17.08 штиль 0 20 км ясно +19.7 +13.0 65 +21 +21 комфорт 1020.5 1000.9
06 17.08 СВ 1 20 км ясно +22.9 +15.0 61 +27 +33 душно 1020.5 1001.1 +19.2
09 17.08 С 2 20 км ясно +28.7 +16.2 47 +32 +45 душно 1020.1 1001.1
12 17.08 С 2 20 км 3/3 600 м
[Cu med, cong]
+30.3 +13.2 35 +32 +39 жарко 1019.4 1000.5
15 17.08 В 2 20 км 3/3 1000 м
[Cu med, cong]
+29.8 +12.8 35 +31 +33 жарко 1018.4 999.5
18 17.08 СВ 1 20 км 4/0
[Ac cuf]
+26.3 +13.8 46 +28 +28 жарко 1019.4 1000.3 +31.4
21 17.08 В 1 20 км 3/0
[Ac trans Ci fib]
+24.4 +12.6 48 +26 +26 жарко 1019.5 1000.2
00 18.08 штиль 0 20 км 4/0
[Ac trans]
+21.5 +12.1 55 +24 +24 комфорт 1019.7 1000.2
03 18.08 штиль 0 20 км 6/4 1000 м
[Sc Ac trans]
+19.4 +12.5 64 +21 +21 комфорт 1020.0 1000.4
06 18.08 В 1 20 км 3/1 1000 м
[Sc Ac trans]
+24.6 +13.3 49 +27 +31 жарко 1020.2 1000.9 +19.3
09 18.08 В 2 20 км ясно +30.3 +10.9 30 +30 +43 жарко 1019.8 1000.9
12 18.08 ЮВ 1 20 км 5/5 1000 м
[Cu med, cong]
+32.2 +8.4 23 +31 +37 жарко 1018.7 999.9
15 18.08 ЮВ 1 20 км 4/0
[Ac cuf]
+31.9 +9.9 26 +31 +33 жарко 1018.2 999.4
18 18.08 В 1 20 км ясно +26.7 +10.3 36 +27 +27 жарко 1018.8 999.7 +33.0
21 18.08 В 2 20 км 3/0
[Ac trans]
+25.0 +11.7 43 +26 +26 жарко 1019.0 999.8
00 19.08 штиль 0 20 км ясно +21.5 +13.6 61 +24 +24 комфорт 1018.8 999.4
03 19.08 штиль 0 20 км ясно +19.6 +13.1 66 +21 +21 комфорт 1019.3 999.7
06 19.08 Ю 2 20 км ясно +24.1 +14.5 55 +27 +32 жарко 1019.8 1000.5 +19.3
09 19.08 Ю 2 20 км ясно +31.3 +12.4 31 +32 +45 жарко 1019.2 1000.4
12 19.08 Ю 2 20 км 1/1 1000 м
[Cu hum]
+33.9 +8.9 22 +33 +42 жарко 1018.3 999.6
15 19.08 Ю 3 20 км 1/1 1000 м
[Cu hum]
+32.1 +10.2 26 +32 +33 жарко 1017.9 999.1

 

Местоположение метеостанции Киев (город Киев, Украина): широта 50.40 долгота 30.57 высота над уровнем моря 167 м.

В архиве по умолчанию представлена погода в Киеве за последнюю неделю. Архивные данные за месяц целиком и за предыдущие месяцы, начиная с января 2011 года, Вы можете получить, выбрав интересующий диапазон дат из раскрывающегося списка и нажав кнопку "Ввод!".

Внимание! Время в таблицах - всемирное. Для получения местного времени необходимо прибавить поправку, которая в Киеве равна 2 ч.

Смотрите также архив погоды в соседних городах и на ближайших метеорологических станциях:

Погода в Вышгороде (Киевская область, Украина) (21 км)
Погода в Борисполе (Киевская область, Украина) (29 км)
Погода в Барышевке (Киевская область, Украина) (54 км)
Погода в Фастове (Киевская область, Украина) (58 км)
Погода в Остере (Черниговская область, Украина) (65 км)
Погода в Тетереве (Киевская область, Украина) (78 км)
Погода в Белой Церкви (Киевская область, Украина) (79 км)
Погода в Мироновке (Киевская область, Украина) (87 км)
Погода в Яготине (Киевская область, Украина) (90 км)
Погода в Чернобыле (Киевская область, Украина) (101 км)

Пояснения к столбцам:

Ветер - указаны скорость ветра в м/с - средняя за 10 мин, порывы в срок и между сроками (в фигурных скобках) и направление, откуда дует ветер: С - северный, СВ - северо-восточный, В - восточный, ЮВ - юго-восточный, Ю - южный, ЮЗ - юго-западный, З - западный, СЗ - северо-западный.
Видимость - горизонтальная дальность видимости в метрах или километрах. При видимости от 1 до 10 км при отсутствии осадков обычно наблюдается дымка, при ухудшении видимости до 1 км и менее - туман. В сухую погоду видимость может ухудшаться дымом, пылью или мглою.
Явления - указаны атмосферные явления, наблюдавшиеся в срок или в последний час перед сроком; фигурными скобками обозначены явления, наблюдавшиеся между сроками (за 1-3 часа до срока); квадратными скобками обозначены град или гололедные отложения с указанием их диаметра в мм.
Облачность - указаны через наклонную черту общая и нижняя облачность в баллах и высота нижней границы облаков в метрах; квадратными скобками обозначены формы облаков: Ci - перистые, Cs - перисто-слоистые, Cc - перисто-кучевые, Ac - высококучевые, As - высокослоистые, Sc - слоисто-кучевые, Ns - слоисто-дождевые, Cu - кучевые, Cb - кучево-дождевые. Подробнее классификацию облаков см. в Атласе облаков (PDF).
T - Температура воздуха - температура, измеренная на высоте 2 м над землей.
Td - Температура точки росы - температура, при понижении до которой содержащийся в воздухе водяной пар достигнет насыщения.
f - Относительная влажность воздуха - влажноcть воздуха, измеренная на высоте 2 м над землей.
Te - Эффективная температура - температура, которую ощущает одетый по сезону человек в тени. Характеристика душности погоды. При расчете учитывается влияние влажности воздуха и скорости ветра на теплоощущения человека.
Tes - Эффективная температура на солнце - температура, которую ощущает человек, с поправкой на солнечный нагрев. Характеристика знойности погоды. Зависит от высоты солнца над горизонтом, облачности и скорости ветра. Ночью, в пасмурную погоду, а также при ветре 12 м/с и более поправка равна нулю.
P - Атмосферное давление - приведенное к уровню моря атмосферное давление.
Po - Атмосферное давление - измеренное на уровне метеостанции атмосферное давление.
Tmin - Минимальная температура - минимум температуры воздуха на высоте 2 м над землей.
Tmax - Максимальная температура - максимум температуры воздуха на высоте 2 м над землей.
R - Количество осадков - Количество выпавших осадков за период времени, мм. При наведении курсора мыши на число - период времени, за который выпало указанное количество осадков.
R24 - Количество осадков - Количество выпавших осадков за 24 часа, мм.
S - Снежный покров - Высота снежного покрова, см. При наведении курсора мыши на число - состояние снежного покрова и степень покрытия местности в баллах.